DateTimeUTC,F1_A11,F1_S11,BsB_S11,BsG_S11,BsR_S11,BbsB_S11,BbsG_S11,BbsR_S11,BaB_A11,BaG_A11,BaR_A11,Tu_S11,T_S11,Uu_S11,U_S11,P_S11,T1_A11
2021-08-05T00:00:00Z,00000200,20000000,,,,,,,-000.17,0000.06,-000.18,18.5,25.5,07.1,04.6,0671.4,31.0
2021-08-05T00:01:00Z,00000200,20000000,,,,,,,-000.25,-000.26,-000.36,18.5,25.5,07.1,04.6,0671.4,31.0
2021-08-05T00:02:00Z,00000200,20000000,,,,,,,-000.27,-000.22,-000.15,18.5,25.5,07.1,04.6,0671.4,31.0
2021-08-05T00:03:00Z,00000200,60000000,,,,,,,0001.03,0000.99,0000.69,18.5,25.5,07.1,04.6,0671.4,31.0
2021-08-05T00:04:00Z,00000200,40000000,0005.01,0003.88,0001.70,0000.38,0000.47,0000.20,0001.39,0001.03,0000.66,18.6,25.3,06.7,04.5,0672.3,31.0
2021-08-05T00:05:00Z,00000200,00000000,0004.54,0003.70,0002.08,0000.46,0000.67,0000.61,0001.42,0001.40,0001.03,18.7,25.2,06.8,04.5,0672.4,31.0
2021-08-05T00:06:00Z,00000200,00000000,0005.18,0003.67,0002.55,0000.46,0000.33,0000.15,0001.06,0000.97,0001.24,18.7,25.2,06.7,04.5,0672.4,31.0
2021-08-05T00:07:00Z,00000200,00000000,0005.94,0003.32,0001.98,0000.31,0000.28,0000.41,0001.51,0001.27,0000.83,18.7,25.2,06.8,04.6,0672.4,31.0
2021-08-05T00:08:00Z,00000200,00000000,0005.33,0003.49,0002.47,0000.63,0000.43,0000.73,0001.30,0001.35,0000.90,18.7,25.2,06.8,04.6,0672.4,31.0
2021-08-05T00:09:00Z,00000200,00000000,0004.47,0003.89,0001.90,0000.83,0000.76,0000.49,0001.42,0001.12,0000.99,18.6,25.1,07.0,04.7,0672.4,31.0
2021-08-05T00:10:00Z,00000200,00000000,0004.54,0003.44,0001.91,-000.13,0000.50,0000.40,0001.24,0000.99,0000.96,18.6,25.1,06.9,04.6,0672.4,31.0
2021-08-05T00:11:00Z,00000200,00000000,0005.25,0003.90,0002.01,0000.13,0000.44,0000.40,0001.46,0001.67,0001.02,18.6,25.1,07.1,04.7,0672.4,31.0
2021-08-05T00:12:00Z,00000200,00000000,0005.20,0003.54,0001.94,0001.13,0000.33,0000.42,0001.29,0001.03,0000.89,18.6,25.1,07.0,04.7,0672.3,31.0
2021-08-05T00:13:00Z,00000200,00000000,0004.52,0003.50,0002.20,0000.95,0000.47,0000.54,0001.49,0001.18,0001.06,18.6,25.1,07.0,04.7,0672.3,31.0
2021-08-05T00:14:00Z,00000200,00000000,0005.63,0003.46,0001.84,0000.99,0000.54,0000.53,0001.10,0001.07,0000.99,18.6,25.1,07.0,04.7,0672.3,31.0
2021-08-05T00:15:00Z,00000200,00000000,0004.64,0003.45,0001.93,0000.65,0000.58,0000.33,0001.66,0001.66,0000.67,18.6,25.1,07.0,04.7,0672.3,31.0
2021-08-05T00:16:00Z,00000200,00000000,0005.16,0003.49,0002.04,0000.08,0000.66,0000.44,0001.09,0001.15,0001.13,18.7,25.1,07.0,04.7,0672.3,31.0
2021-08-05T00:17:00Z,00000200,00000000,0005.66,0003.43,0002.26,0000.81,0000.68,0000.53,0001.41,0001.11,0000.83,18.8,25.2,07.0,04.8,0672.3,31.0
2021-08-05T00:18:00Z,00000200,00000000,0005.12,0003.71,0001.90,0000.50,0000.53,0000.61,0000.70,0000.80,0000.77,18.9,25.2,06.9,04.6,0672.3,31.0
2021-08-05T00:19:00Z,00000200,00000000,0004.07,0003.49,0001.87,0000.67,0000.21,0000.17,0001.10,0001.18,0000.49,18.9,25.3,06.7,04.6,0672.3,31.0
2021-08-05T00:20:00Z,00000200,00000000,0004.91,0003.34,0002.27,0000.68,0000.30,0000.45,0001.24,0000.87,0000.86,18.9,25.2,06.7,04.6,0672.3,31.0
2021-08-05T00:21:00Z,00000200,00000000,0004.44,0003.78,0002.25,0000.26,0000.55,0000.64,0001.06,0000.87,0000.65,18.9,25.3,06.6,04.5,0672.3,31.0
2021-08-05T00:22:00Z,00000200,00000000,0004.37,0003.50,0001.94,0000.34,0000.57,0000.59,0001.00,0000.85,0000.71,18.9,25.2,06.5,04.4,0672.3,31.0
2021-08-05T00:23:00Z,00000200,00000000,0005.07,0003.77,0002.30,0000.46,0000.40,0000.83,0001.27,0001.13,0000.79,18.9,25.2,06.4,04.4,0672.3,31.0
2021-08-05T00:24:00Z,00000200,00000000,0005.23,0003.58,0001.81,0000.70,0000.75,0000.31,0001.19,0000.98,0000.70,18.9,25.2,06.3,04.3,0672.3,31.0
2021-08-05T00:25:00Z,00000200,00000000,0005.23,0003.72,0002.03,0000.36,0000.40,0000.41,0001.71,0001.60,0001.56,18.8,25.2,06.5,04.4,0672.3,31.0
2021-08-05T00:26:00Z,00000200,00000000,0004.89,0003.32,0002.31,0000.60,0000.54,0000.46,0001.24,0001.22,0000.56,18.8,25.2,06.6,04.5,0672.3,31.0
2021-08-05T00:27:00Z,00000200,00000000,0004.87,0003.60,0002.09,0000.61,0000.50,0000.25,0001.18,0001.13,0001.19,18.8,25.2,06.6,04.5,0672.3,31.0
2021-08-05T00:28:00Z,00000200,00000000,0004.57,0003.46,0001.98,-000.04,0000.06,0000.58,0001.42,0001.25,0001.05,18.8,25.2,06.6,04.5,0672.3,31.0
2021-08-05T00:29:00Z,00000200,00000000,0004.98,0003.60,0002.06,0001.05,0000.72,0000.41,0001.37,0001.43,0000.82,18.8,25.2,06.7,04.5,0672.3,31.0
2021-08-05T00:30:00Z,00000200,00000000,0005.40,0003.48,0001.86,0000.42,0000.49,0000.52,0001.10,0001.26,0000.84,18.8,25.2,06.8,04.6,0672.3,31.0
2021-08-05T00:31:00Z,00000200,00000000,0004.45,0003.42,0001.75,0000.34,0000.75,0000.58,0001.55,0000.99,0001.10,18.7,25.1,06.8,04.6,0672.3,31.0
2021-08-05T00:32:00Z,00000200,00000000,0005.23,0003.85,0001.78,0000.69,0000.47,0000.16,0001.16,0001.29,0000.83,18.7,25.1,06.9,04.7,0672.3,31.0
2021-08-05T00:33:00Z,00000200,00000000,0004.52,0003.91,0002.33,0000.20,0000.64,0000.19,0001.61,0001.32,0001.08,18.7,25.1,06.9,04.6,0672.3,31.0
2021-08-05T00:34:00Z,00000200,00000000,0005.05,0004.00,0001.96,-000.31,0000.57,0000.41,0001.13,0001.17,0000.87,18.7,25.1,06.9,04.6,0672.3,31.0
2021-08-05T00:35:00Z,00000200,00000000,0005.09,0003.58,0002.19,0000.80,0000.34,0000.44,0001.10,0000.91,0000.50,18.7,25.1,06.8,04.6,0672.3,31.0
2021-08-05T00:36:00Z,00000200,00000000,0004.36,0003.24,0002.02,0000.51,0000.39,0000.16,0001.32,0001.00,0000.90,18.7,25.1,06.8,04.6,0672.3,31.0
2021-08-05T00:37:00Z,00000200,00000000,0005.31,0003.77,0001.96,0000.50,0000.58,0000.57,0001.22,0001.54,0001.17,18.7,25.1,06.8,04.6,0672.3,31.0
2021-08-05T00:38:00Z,00000200,00000000,0005.47,0003.58,0002.16,0000.56,0000.78,0000.40,0001.15,0000.65,0000.55,18.7,25.1,06.8,04.6,0672.3,31.0
2021-08-05T00:39:00Z,00000200,00000000,0005.08,0003.48,0002.18,0000.54,0000.60,0000.33,0000.96,0000.89,0000.46,18.6,25.1,06.7,04.5,0672.3,31.0
2021-08-05T00:40:00Z,00000200,00000000,0004.94,0003.86,0001.86,0000.60,0000.32,0000.60,0001.02,0001.10,0000.85,18.7,25.1,06.5,04.4,0672.2,31.0
2021-08-05T00:41:00Z,00000200,00000000,0005.60,0003.89,0001.93,0001.26,0000.58,0000.29,0000.99,0000.50,0000.31,18.6,25.1,06.4,04.3,0672.2,31.0
2021-08-05T00:42:00Z,00000200,00000000,0005.24,0003.46,0001.97,0000.29,0000.76,0000.32,0000.78,0000.61,0000.65,18.6,25.1,06.1,04.1,0672.2,31.0
2021-08-05T00:43:00Z,00000200,00000000,0005.56,0003.10,0002.17,0000.54,0000.52,0000.38,0001.55,0001.80,0001.23,18.6,25.1,06.0,04.0,0672.2,31.0
2021-08-05T00:44:00Z,00000200,00000000,0004.34,0003.05,0001.52,0000.51,0000.53,0000.04,0000.65,0000.42,0000.36,18.6,25.0,06.2,04.2,0672.1,31.0
2021-08-05T00:45:00Z,00000200,00000000,0000.35,0000.31,0000.32,0000.85,-000.01,-000.10,-000.14,0000.03,-000.16,18.6,25.0,05.8,03.9,0672.1,31.0
2021-08-05T00:46:00Z,00000200,00000000,0001.92,0001.21,0000.52,-000.40,0000.31,0000.39,-000.26,-000.44,-000.67,18.7,25.1,05.5,03.7,0672.0,31.0
2021-08-05T00:47:00Z,00000200,00000000,0005.23,0003.53,0002.17,0000.24,0000.55,0000.29,0000.74,0000.73,0000.47,18.7,25.1,05.2,03.5,0672.0,31.0
2021-08-05T00:48:00Z,00000200,00000000,0004.19,0003.56,0002.24,0000.66,0000.45,0000.55,0001.23,0000.95,0001.10,18.8,25.1,05.1,03.5,0672.0,31.0
2021-08-05T00:49:00Z,00000200,00000000,-000.02,0000.21,-000.17,-000.04,0000.02,0000.45,-000.15,-000.15,-000.70,18.8,25.1,05.1,03.4,0671.9,31.0
2021-08-05T00:50:00Z,00000200,00000000,0000.20,-000.12,0000.03,-000.19,-000.11,0000.34,-000.64,-000.80,-000.24,18.8,25.1,04.9,03.3,0671.9,31.0
2021-08-05T00:51:00Z,00000200,00000000,0000.36,0000.12,-000.03,-000.09,0000.17,0000.31,0001.10,0000.96,0001.11,18.8,25.1,04.8,03.2,0671.9,31.0
2021-08-05T00:52:00Z,00000200,00000000,0002.57,0001.99,0000.91,0000.37,0000.30,0000.22,0000.16,0000.77,0000.22,18.7,25.1,05.4,03.6,0671.9,31.0
2021-08-05T00:53:00Z,00000200,00000000,0005.35,0003.65,0002.25,0000.85,0000.50,0000.73,0002.47,0002.06,0001.76,18.7,25.1,05.1,03.5,0671.8,31.0
2021-08-05T00:54:00Z,00000200,00000000,0004.65,0003.80,0001.84,0000.65,0000.90,0000.21,0001.16,0001.18,0001.25,18.7,25.1,05.8,03.9,0671.8,31.0
2021-08-05T00:55:00Z,00000200,00000000,0005.31,0003.72,0001.86,0000.33,0000.68,0000.28,0000.50,0000.62,0000.26,18.7,25.1,05.8,03.9,0671.8,31.0
2021-08-05T00:56:00Z,00000200,00000000,0003.69,0002.49,0000.99,0000.49,0000.45,0000.64,0000.79,0000.55,0000.20,18.7,25.1,05.5,03.7,0671.8,31.0
2021-08-05T00:57:00Z,00000200,40000000,,,,,,,0002.28,0002.30,0002.17,18.7,25.1,05.5,03.7,0671.8,31.0
2021-08-05T00:58:00Z,00000200,60000000,,,,,,,-001.09,-001.38,-001.46,18.4,25.2,06.5,04.3,0670.8,31.0
2021-08-05T00:59:00Z,00000200,20000000,,,,,,,-000.02,0000.04,0000.10,18.3,25.3,06.2,04.0,0670.8,31.0
